Погода в Баканасе

Погода в Баканасе : погода сейчас, прогноз погоды и архив. Всё, что Вы хотите узнать о погоде в Баканасе!

Хотите узнать прогноз погоды в Баканасе? Тогда Вам сюда: Погода в Баканасе

Поиск расширенной информации на нашем сайте:

Другие новости

Новости СМИ2

Главная страница сайта

Новости сайта

03.07.2017

Напоминаем, что на нашем специализированном сайте Метеоцентр.Азия вы можете получить высокодетализированные автоматические прогнозы погоды по пунктам России, СНГ и мира в авиационном формате (включающие направление и скорость ветра, видимость, явления погоды, количество и форму облачности, нижнюю и верхнюю границу облачности).

Рекомендуем: hex коды Bram Stoker's Dracula

Погода в Баканасе - сегодня

Время (UTC), дата Ветер
(°,м/с) 
Видим.   Явления Облачность Т
(°С)
Тd
(°С)
f(%) Тe
(°С)
Pmin
(гПа)
dP
(гПа)
Po
(мм)
O2
(г/м3)
Тmin Tmax R s Состояние
почвы
03 19.08.17 110 (В) 20000 м    3/0 верхняя 
[Ci sp]
+19.8 +3.6 34 +21  1016.2  1.1  751  281           
06 19.08.17 130 (ЮВ) 20000 м    9/4 600 м кучево-дожд., верхняя 
[Cb cap|Ci sp]
+26 +6.3 28 +26  1014.8  -0.4  728  267  +11.3         
09 19.08.17 120 (ЮВ) 20000 м    8/5 600 м кучево-дожд., верхняя 
[Cb cap|Ci sp]
+28.3 +6.2 25 +28  1013.5  -0.9  727  264           
12 19.08.17 130 (ЮВ) 20000 м    8/8 600 м кучево-дожд. 
[Cb cap]
+28 +5.1 23 +28  1013.9  0.3  727  265           
15 19.08.17 130 (ЮВ) н/о    8/6 600 м кучево-дожд., верхняя 
[Cb cap|Ci sp]
+22.2 +5.2 33 +22  1016.4  1.5  728  271    +28.5       
18 19.08.17 150 (ЮВ) н/о    6/3 600 м кучево-дожд., верхняя 
[Cb cap|Ci sp]
+18 +6 45 +19  1017.6  0.5  729  275    +28.5       
21 19.08.17 140 (ЮВ) н/о    6/3 600 м кучево-дожд., верхняя 
[Cb cap|Ci sp]
+15.5 +6.9 57 +16  1018.1  0.1  729  277           
00 20.08.17 130 (ЮВ) 2{10}  20000 м    4/3 600 м кучево-дожд., верхняя 
[Cb cap|Ci sp]
+11.8 +5.9 67 +12  1019.2  0.5  729  281           
03 20.08.17 160 (Ю) 20000 м    3/0 верхняя 
[Ci sp]
+19.2 +6.1 42 +20  1019  730  274           
06 20.08.17 130 (ЮВ) 20000 м  пыльная буря на расстоянии  3/0 верхняя 
[Ci sp]
+23.4 +0 21 +23  1017.9  -0.5  730  271  +11.7         
09 20.08.17 130 (ЮВ) 20000 м    3/0 верхняя 
[Ci sp]
+24.6 +0.2 20 +25  1016.4  -1.2  729  269           
12 20.08.17 130 (ЮВ) 20000 м    4/0 верхняя 
[Ci sp]
+25 +1.1 21 +25  1016.9  0.5  729  269           
15 20.08.17 тихо ()   н/о    3/0 верхняя 
[Ci sp]
+18.3 +2 34 +18  1019.5  1.5  730  275    +25.8       
18 20.08.17 тихо ()   н/о    3/0 верхняя 
[Ci sp]
+13.7 +1 42 +14  1020.5  0.3  731  280    +25.8       
21 20.08.17 140 (ЮВ) н/о    ясно 
+11.2 +1.4 51 +11  1020.6  -0.3  730  282           
00 21.08.17 170 (Ю) 3{14}  20000 м    ясно 
+9.2 +1 56 +9  1021.3  0.3  731  285           
03 21.08.17 140 (ЮВ) 20000 м    ясно 
+18.2 +2.8 36 +19  1020.5  0.6  750  283           
06 21.08.17 170 (Ю) 4000 м  пыльная буря на расстоянии  ясно 
+21.8 +1.9 27 +22  1019.2  -0.7  730  272  +9.1         
09 21.08.17 130 (ЮВ) 4000 м  пыльная буря на расстоянии  ясно 
+24.7 +0 20 +25  1017.2  -1.4  729  269           
12 21.08.17 150 (ЮВ) 20000 м  пыльная буря на расстоянии  ясно 
+24.6 -0.6 19 +25  1016.5  -0.8  729  269           
15 21.08.17 130 (ЮВ) н/о    ясно 
+18 +0.5 31 +19  1018.1  0.6  729  276    +25.2       
18 21.08.17 130 (ЮВ) н/о    ясно 
+13.3 +1.7 45 +14  1018.1  -0.7  729  280    +25.2       
21 21.08.17 130 (ЮВ) н/о    ясно 
+12.3 +2 49 +12  1017.1  -1.1  728  280           
00 22.08.17 тихо () {14}  20000 м    ясно 
+9.4 +3.5 67 +9  1017.6  728  283           
03 22.08.17 130 (ЮВ) 20000 м    ясно 
+18.6 +5.2 41 +19  1016.7  0.6  751  282           
Время (UTC), дата Ветер
(°,м/с) 
Видим.   Явления Облачность Т
(°С)
Тd
(°С)
f(%) Тe
(°С)
Pmin
(гПа)
dP
(гПа)
Po
(мм)
O2
(г/м3)
Тmin Tmax R s Состояние
почвы

Для получения пояснительной информации подведите курсор к названию столбца.

ПОГОДА в Баканасе - архив

Всё, что Вы хотите узнать о погоде в Баканасе - удобно и подробно!

Выберите нужную дату (начиная с 1 января 2015* года) и нажмите кнопку "Найти".
Будут отображены архивные сводки погоды по пункту Баканас, начиная с указанной даты.


Отображать данные в формате CSV (для использования в таблицах Excel)


Внимание! Наш архив погоды предназначен исключительно для личного некоммерческого использования в познавательных целях. Если Вам необходимы официальные справки о состоянии погоды (для производственных, юридических, коммерческих и т.п. целей), обращайтесь в органы Росгидромета.

*Примечание: данная дата относится к архиву по метеостанциям СССР (Россия, СНГ, Балтия).
Архив по метеостанциям Зарубежной Европы и Азии (кроме Китая) хранится 10 дней, по другим регионам земного шара (Китай, Африка, Америка, Австралия, Океания) - 1 день.

Баканас - район местоположения метеостанции


Название, широта, долгота, высота метеостанции:
Баканас 44.8°ш. 76.3°д. 396 м над ур. моря [Казахстан]

Дополнительная информация

В oтличие oт бoльшинства пoгoдных сайтoв мы публикуем пoдрoбную метеoинфoрмацию в детальнoм прoфессиoнальнoм фoрмате.

Характеристики температуры и влажнoсти вoздуха измеряются на высoте 2 м в тени вдали oт зданий и деревьев.
Скoрoсть ветра измеряется на высoте 10 м (на урoвне рoста челoвека скoрoсть ветра ниже в 1.5-2 раза). Если метеoстанция нахoдится в гoрoде или в лесу, тo скoрoсть ветра занижена на 2-4 м/с пo сравнению с oткрытым местoм. Скoрoсть ветра над акватoриями крупных рек и oзёр, а также на вершинах хoлмoв на 2-5 м/с выше, чем в oбычных услoвиях.
Атмoсфернoе давление в разных тoчках местнoсти мoжет значительнo oтличаться oт давления на метеoстанции, в зависимoсти oт услoвий рельефа (при пoдъёме на 10 м давление пoнижается примернo на 1 мм рт.ст.).